User: anonymous   Login
Location: Unspecified
(0.0000°N, 0.0000°E)
Time: 20:11:00
(UTC+00:00)
Language:

STARLINK-4190 - Orbit

View from above orbital plane
View from above orbital plane
View from above satellite
View from above satellite

Ground track
Ground track

The orbit is defined by the following mean orbital elements,

1 53001U          26145.17826707 +.00000000 +00000-0 +54699-4 0 00005
2 53001  53.2122 110.7485 0001502  80.7492 279.3670 15.08841441    00
Epoch (UTC): 25 May 2026 04:16:42
Eccentricity: 0.0001502
inclination: 53.2122°
perigee height: 539 km
apogee height: 541 km
right ascension of ascending node: 110.7485°
argument of perigee: 80.7492°
revolutions per day: 15.08841441
mean anomaly at epoch: 279.3670°

The dashed part of the orbit path shows where the satellite is in the earth's shadow,  

DLR